Home > Weather > Horsens > Past weeks

Flag for Denmark Past Weather in Horsens, Denmark — Yesterday and Last 2 Weeks

Now
66 °F

Mostly cloudy.


Feels Like: 66 °F
Forecast: 61 / 78 °F
Wind: 5 mph from Southeast

Location: Billund Lufthavn

Current Time: Jul 24, 2016 at 3:15:10 AM

Latest Report: Jul 24, 2016 at 2:20 AM


Visibility: N/A

Pressure: 30.12 "Hg

Humidity: 73%

Dew Point: 57 °F

Location of HorsensLocation

Past Weather in Horsens — Graph

°F

Horsens Temperature Yesterday

Maximum temperature yesterday: 81 °F (at 2:50 PM)
Minimum temperature yesterday: 63 °F (at 2:50 AM)
Average temperature yesterday: 71 °F

High & Low Weather Summary for the Past Weeks

 TemperatureHumidityPressure
High81 °F (Jul 23, 2:50 PM)100% (Jul 9, 2:20 AM)30.15 "Hg (Jul 9, 2:20 AM)
Low50 °F (Jul 13, 3:20 AM)34% (Jul 23, 2:50 PM)29.59 "Hg (Jul 11, 3:50 AM)
Average62 °F82%29.96 "Hg
* Reported Jul 9 2:20 AM — Jul 24 2:20 AM, Horsens, Weather by CustomWeather, © 2016

Note: Actual official high and low records may vary slightly from our data, if they occured in-between our weather recording intervals... More about our weather records

Advertising

Horsens Weather History for the Previous 24 Hours

Scroll right to see more
 ConditionsComfort  
Time TempWeatherWind HumidityBarometerVisibility
2:20 AM
Sun, Jul 24
66 °FMostly cloudy.5 mph73%30.12 "HgN/A
1:50 AM66 °FOvercast.5 mph73%30.12 "HgN/A
1:20 AM66 °FPassing clouds.5 mph73%30.12 "HgN/A
12:50 AM66 °FPassing clouds.6 mph68%30.12 "HgN/A
12:20 AM66 °FPassing clouds.6 mph68%30.12 "HgN/A
11:50 PM
Sat, Jul 23
66 °FPassing clouds.7 mph68%30.12 "HgN/A
11:20 PM66 °FPassing clouds.6 mph68%30.12 "HgN/A
10:50 PM68 °FMild.7 mph69%30.12 "HgN/A
10:20 PM70 °FMild.5 mph64%30.12 "HgN/A
9:50 PM70 °FScattered clouds.5 mph64%30.12 "HgN/A
9:20 PM72 °FPassing clouds.3 mph61%30.12 "HgN/A
8:50 PM73 °FScattered clouds.5 mph57%30.12 "HgN/A
8:20 PM75 °FScattered clouds.6 mph54%30.12 "HgN/A
7:50 PM77 °FScattered clouds.7 mph44%30.09 "HgN/A
7:20 PM79 °FScattered clouds.8 mph39%30.12 "HgN/A
6:50 PM79 °FScattered clouds.8 mph42%30.09 "HgN/A
6:20 PM81 °FPassing clouds.8 mph39%30.09 "HgN/A
5:50 PM81 °FPassing clouds.8 mph39%30.09 "HgN/A
5:20 PM81 °FPassing clouds.10 mph39%30.09 "HgN/A
4:50 PM79 °FPassing clouds.10 mph39%30.12 "HgN/A
4:20 PM81 °FPassing clouds.10 mph34%30.12 "HgN/A
3:50 PM81 °FPartly sunny.9 mph34%30.12 "HgN/A
3:20 PM81 °FScattered clouds.9 mph37%30.12 "HgN/A
2:50 PM81 °FPassing clouds.10 mph34%30.12 "HgN/A
2:20 PM79 °FScattered clouds.8 mph45%30.12 "HgN/A
1:50 PM79 °FScattered clouds.8 mph39%30.12 "HgN/A
1:20 PM79 °FScattered clouds.6 mph48%30.12 "HgN/A
12:50 PM79 °FPassing clouds.8 mph48%30.12 "HgN/A
12:20 PM77 °FWarm.7 mph54%30.12 "HgN/A
11:50 AM77 °FPassing clouds.9 mph51%30.12 "HgN/A
11:20 AM75 °FPartly sunny.8 mph61%30.12 "HgN/A
10:50 AM73 °FScattered clouds.8 mph65%30.12 "HgN/A
10:20 AM72 °FScattered clouds.8 mph69%30.09 "HgN/A
9:50 AM70 °FMild.7 mph78%30.09 "HgN/A
9:20 AM68 °FScattered clouds.5 mph83%30.09 "HgN/A
8:50 AM66 °FPartly sunny.5 mph88%30.09 "HgN/A
8:20 AM64 °FPartly sunny.6 mph94%30.09 "HgN/A
7:50 AM64 °FOvercast.7 mph88%30.09 "HgN/A
7:20 AM64 °FRain showers. Overcast.10 mph83%30.09 "HgN/A
6:50 AM63 °FSprinkles. Overcast.2 mph94%30.09 "HgN/A
6:20 AM63 °FSprinkles. Overcast.6 mph94%30.09 "HgN/A
5:50 AM63 °FLight rain. Overcast.6 mph94%30.09 "HgN/A
5:20 AM63 °FLight rain. Passing clouds.1 mph94%30.09 "HgN/A
4:50 AM63 °FOvercast.2 mph94%30.09 "HgN/A
4:20 AM64 °FMostly cloudy.1 mph83%30.09 "HgN/A
3:50 AM64 °FPassing clouds.2 mph83%30.09 "HgN/A
3:20 AM63 °FPartly cloudy.3 mph88%30.09 "HgN/A
Weather by CustomWeather, © 2016

See weather overviewHow to use our weather pages